Location: Azul
(36.7830°S, 59.8500°W)
Time: 10:19:56
(UTC-03:00)

ISS - Pass Details

Date: 11 September 2019
Orbit: 411 x 421 km, 51.6° (Epoch: 18 September)

Event Time Altitude Azimuth Distance (km) Brightness Sun altitude
Rises 19:57:19 0° 253° (WSW) 2,382 1.8 -14.9°
Reaches altitude 10° 20:00:57 10° 293° (WNW) 1,502 0.0 -15.6°
Maximum altitude 20:01:43 11° 306° (NW) 1,463 -0.3 -15.8°
Drops below altitude 10° 20:02:29 10° 319° (NW) 1,496 -0.5 -15.9°
Sets 20:06:04 0° 0° (N) 2,342 0.0 -16.6°
